owner,sensor,date,latitude,longitude,relative_humidity,qcFlag 
DISL,ioos:station:DISL:KATA:1,2017-07-01T00:00:00Z,30.2583,-88.2131,84.3,1111122 
DISL,ioos:station:DISL:KATA:1,2017-07-01T00:30:00Z,30.2583,-88.2131,85.1,1111122 
DISL,ioos:station:DISL:KATA:1,2017-07-01T01:00:00Z,30.2583,-88.2131,86.2,1111122 
DISL,ioos:station:DISL:KATA:1,2017-07-01T01:30:00Z,30.2583,-88.2131,84.7,1111122 
DISL,ioos:station:DISL:KATA:1,2017-07-01T02:00:00Z,30.2583,-88.2131,84.6,1111122 
DISL,ioos:station:DISL:KATA:1,2017-07-01T02:30:00Z,30.2583,-88.2131,86.5,1111122 
DISL,ioos:station:DISL:KATA:1,2017-07-01T03:00:00Z,30.2583,-88.2131,85.5,1111122 
DISL,ioos:station:DISL:KATA:1,2017-07-01T03:30:00Z,30.2583,-88.2131,86.5,1111122 
DISL,ioos:station:DISL:KATA:1,2017-07-01T04:00:00Z,30.2583,-88.2131,85.8,1111122 
DISL,ioos:station:DISL:KATA:1,2017-07-01T04:30:00Z,30.2583,-88.2131,85.7,1111122 
DISL,ioos:station:DISL:KATA:1,2017-07-01T05:00:00Z,30.2583,-88.2131,86.8,1111122 
DISL,ioos:station:DISL:KATA:1,2017-07-01T05:30:00Z,30.2583,-88.2131,85.4,1111122 
DISL,ioos:station:DISL:KATA:1,2017-07-01T06:00:00Z,30.2583,-88.2131,85.5,1111122 
DISL,ioos:station:DISL:KATA:1,2017-07-01T06:30:00Z,30.2583,-88.2131,83.8,1111122 
DISL,ioos:station:DISL:KATA:1,2017-07-01T07:00:00Z,30.2583,-88.2131,82.7,1111122 
DISL,ioos:station:DISL:KATA:1,2017-07-01T07:30:00Z,30.2583,-88.2131,82.6,1111122 
DISL,ioos:station:DISL:KATA:1,2017-07-01T08:00:00Z,30.2583,-88.2131,84.1,1111122 
DISL,ioos:station:DISL:KATA:1,2017-07-01T08:30:00Z,30.2583,-88.2131,84.5,1111122 
DISL,ioos:station:DISL:KATA:1,2017-07-01T09:00:00Z,30.2583,-88.2131,82.8,1111122 
DISL,ioos:station:DISL:KATA:1,2017-07-01T09:30:00Z,30.2583,-88.2131,82.9,1111122 
DISL,ioos:station:DISL:KATA:1,2017-07-01T10:00:00Z,30.2583,-88.2131,85.2,1111122 
DISL,ioos:station:DISL:KATA:1,2017-07-01T10:30:00Z,30.2583,-88.2131,85.1,1111122 
DISL,ioos:station:DISL:KATA:1,2017-07-01T11:00:00Z,30.2583,-88.2131,85.2,1111122 
DISL,ioos:station:DISL:KATA:1,2017-07-01T11:30:00Z,30.2583,-88.2131,86.4,1111122 
DISL,ioos:station:DISL:KATA:1,2017-07-01T12:00:00Z,30.2583,-88.2131,86.0,1111122 
DISL,ioos:station:DISL:KATA:1,2017-07-01T12:30:00Z,30.2583,-88.2131,85.6,1111122 
DISL,ioos:station:DISL:KATA:1,2017-07-01T13:00:00Z,30.2583,-88.2131,83.7,1111122 
DISL,ioos:station:DISL:KATA:1,2017-07-01T13:30:00Z,30.2583,-88.2131,82.9,1111122 
DISL,ioos:station:DISL:KATA:1,2017-07-01T14:00:00Z,30.2583,-88.2131,87.1,1111122 
DISL,ioos:station:DISL:KATA:1,2017-07-01T14:30:00Z,30.2583,-88.2131,86.2,1111122 
DISL,ioos:station:DISL:KATA:1,2017-07-01T15:00:00Z,30.2583,-88.2131,81.4,1111122 
DISL,ioos:station:DISL:KATA:1,2017-07-01T15:30:00Z,30.2583,-88.2131,83.1,1111122 
DISL,ioos:station:DISL:KATA:1,2017-07-01T16:00:00Z,30.2583,-88.2131,92.1,1111122 
DISL,ioos:station:DISL:KATA:1,2017-07-01T16:30:00Z,30.2583,-88.2131,88.6,1111122 
DISL,ioos:station:DISL:KATA:1,2017-07-01T17:00:00Z,30.2583,-88.2131,86.3,1111122 
DISL,ioos:station:DISL:KATA:1,2017-07-01T17:30:00Z,30.2583,-88.2131,82.4,1111122 
DISL,ioos:station:DISL:KATA:1,2017-07-01T18:00:00Z,30.2583,-88.2131,83.2,1111122 
DISL,ioos:station:DISL:KATA:1,2017-07-01T18:30:00Z,30.2583,-88.2131,84.9,1111122 
DISL,ioos:station:DISL:KATA:1,2017-07-01T19:00:00Z,30.2583,-88.2131,82.7,1111122 
DISL,ioos:station:DISL:KATA:1,2017-07-01T19:30:00Z,30.2583,-88.2131,82.0,1111122 
DISL,ioos:station:DISL:KATA:1,2017-07-01T20:00:00Z,30.2583,-88.2131,82.6,1111122 
DISL,ioos:station:DISL:KATA:1,2017-07-01T20:30:00Z,30.2583,-88.2131,83.7,1111122 
DISL,ioos:station:DISL:KATA:1,2017-07-01T21:00:00Z,30.2583,-88.2131,84.3,1111122 
DISL,ioos:station:DISL:KATA:1,2017-07-01T21:30:00Z,30.2583,-88.2131,81.2,1111122 
DISL,ioos:station:DISL:KATA:1,2017-07-01T22:00:00Z,30.2583,-88.2131,81.0,1111122 
DISL,ioos:station:DISL:KATA:1,2017-07-01T22:30:00Z,30.2583,-88.2131,78.58,1111122 
DISL,ioos:station:DISL:KATA:1,2017-07-01T23:00:00Z,30.2583,-88.2131,78.28,1111122 
DISL,ioos:station:DISL:KATA:1,2017-07-01T23:30:00Z,30.2583,-88.2131,79.33,1111122 
DISL,ioos:station:DISL:KATA:1,2017-07-02T00:00:00Z,30.2583,-88.2131,76.05,1111122 
DISL,ioos:station:DISL:KATA:1,2017-07-02T00:30:00Z,30.2583,-88.2131,75.64,1111122 
DISL,ioos:station:DISL:KATA:1,2017-07-02T01:00:00Z,30.2583,-88.2131,75.72,1111122 
DISL,ioos:station:DISL:KATA:1,2017-07-02T01:30:00Z,30.2583,-88.2131,78.4,1111122 
DISL,ioos:station:DISL:KATA:1,2017-07-02T02:00:00Z,30.2583,-88.2131,79.11,1111122 
DISL,ioos:station:DISL:KATA:1,2017-07-02T02:30:00Z,30.2583,-88.2131,80.5,1111122 
DISL,ioos:station:DISL:KATA:1,2017-07-02T03:00:00Z,30.2583,-88.2131,81.7,1111122 
DISL,ioos:station:DISL:KATA:1,2017-07-02T03:30:00Z,30.2583,-88.2131,82.0,1111122 
DISL,ioos:station:DISL:KATA:1,2017-07-02T04:00:00Z,30.2583,-88.2131,83.1,1111122 
DISL,ioos:station:DISL:KATA:1,2017-07-02T04:30:00Z,30.2583,-88.2131,79.55,1111122 
DISL,ioos:station:DISL:KATA:1,2017-07-02T05:00:00Z,30.2583,-88.2131,78.94,1111122 
DISL,ioos:station:DISL:KATA:1,2017-07-02T05:30:00Z,30.2583,-88.2131,81.3,1111122 
DISL,ioos:station:DISL:KATA:1,2017-07-02T06:00:00Z,30.2583,-88.2131,80.9,1111122 
DISL,ioos:station:DISL:KATA:1,2017-07-02T06:30:00Z,30.2583,-88.2131,81.6,1111122 
DISL,ioos:station:DISL:KATA:1,2017-07-02T07:00:00Z,30.2583,-88.2131,82.5,1111122 
DISL,ioos:station:DISL:KATA:1,2017-07-02T07:30:00Z,30.2583,-88.2131,86.9,1111122 
DISL,ioos:station:DISL:KATA:1,2017-07-02T08:00:00Z,30.2583,-88.2131,84.5,1111122 
DISL,ioos:station:DISL:KATA:1,2017-07-02T08:30:00Z,30.2583,-88.2131,85.1,1111122 
DISL,ioos:station:DISL:KATA:1,2017-07-02T09:00:00Z,30.2583,-88.2131,84.2,1111122 
DISL,ioos:station:DISL:KATA:1,2017-07-02T09:30:00Z,30.2583,-88.2131,86.0,1111122 
DISL,ioos:station:DISL:KATA:1,2017-07-02T10:00:00Z,30.2583,-88.2131,85.3,1111122 
DISL,ioos:station:DISL:KATA:1,2017-07-02T10:30:00Z,30.2583,-88.2131,86.0,1111122 
DISL,ioos:station:DISL:KATA:1,2017-07-02T11:00:00Z,30.2583,-88.2131,84.7,1111122 
DISL,ioos:station:DISL:KATA:1,2017-07-02T11:30:00Z,30.2583,-88.2131,83.6,1111122 
DISL,ioos:station:DISL:KATA:1,2017-07-02T12:00:00Z,30.2583,-88.2131,84.7,1111122 
DISL,ioos:station:DISL:KATA:1,2017-07-02T12:30:00Z,30.2583,-88.2131,83.9,1111122 
DISL,ioos:station:DISL:KATA:1,2017-07-02T13:00:00Z,30.2583,-88.2131,86.8,1111122 
DISL,ioos:station:DISL:KATA:1,2017-07-02T13:30:00Z,30.2583,-88.2131,86.9,1111122 
DISL,ioos:station:DISL:KATA:1,2017-07-02T14:00:00Z,30.2583,-88.2131,86.4,1111122 
DISL,ioos:station:DISL:KATA:1,2017-07-02T14:30:00Z,30.2583,-88.2131,86.2,1111122 
DISL,ioos:station:DISL:KATA:1,2017-07-02T15:00:00Z,30.2583,-88.2131,82.4,1111122 
DISL,ioos:station:DISL:KATA:1,2017-07-02T15:30:00Z,30.2583,-88.2131,87.2,1111122 
DISL,ioos:station:DISL:KATA:1,2017-07-02T16:00:00Z,30.2583,-88.2131,84.3,1111122 
DISL,ioos:station:DISL:KATA:1,2017-07-02T16:30:00Z,30.2583,-88.2131,81.4,1111122 
DISL,ioos:station:DISL:KATA:1,2017-07-02T17:00:00Z,30.2583,-88.2131,76.83,1111122 
DISL,ioos:station:DISL:KATA:1,2017-07-02T17:30:00Z,30.2583,-88.2131,69.77,1111122 
DISL,ioos:station:DISL:KATA:1,2017-07-02T18:00:00Z,30.2583,-88.2131,72.42,1111122 
DISL,ioos:station:DISL:KATA:1,2017-07-02T18:30:00Z,30.2583,-88.2131,79.03,1111122 
DISL,ioos:station:DISL:KATA:1,2017-07-02T19:00:00Z,30.2583,-88.2131,77.98,1111122 
DISL,ioos:station:DISL:KATA:1,2017-07-02T19:30:00Z,30.2583,-88.2131,78.65,1111122 
DISL,ioos:station:DISL:KATA:1,2017-07-02T20:00:00Z,30.2583,-88.2131,80.2,1111122 
DISL,ioos:station:DISL:KATA:1,2017-07-02T20:30:00Z,30.2583,-88.2131,78.85,1111122 
DISL,ioos:station:DISL:KATA:1,2017-07-02T21:00:00Z,30.2583,-88.2131,79.83,1111122 
DISL,ioos:station:DISL:KATA:1,2017-07-02T21:30:00Z,30.2583,-88.2131,76.34,1111122 
DISL,ioos:station:DISL:KATA:1,2017-07-02T22:00:00Z,30.2583,-88.2131,73.56,1111122 
DISL,ioos:station:DISL:KATA:1,2017-07-02T22:30:00Z,30.2583,-88.2131,73.9,1111122 
DISL,ioos:station:DISL:KATA:1,2017-07-02T23:00:00Z,30.2583,-88.2131,74.07,1111122 
DISL,ioos:station:DISL:KATA:1,2017-07-02T23:30:00Z,30.2583,-88.2131,75.63,1111122 
DISL,ioos:station:DISL:KATA:1,2017-07-03T00:00:00Z,30.2583,-88.2131,77.56,1111122 
DISL,ioos:station:DISL:KATA:1,2017-07-03T00:30:00Z,30.2583,-88.2131,77.87,1111122 
DISL,ioos:station:DISL:KATA:1,2017-07-03T01:00:00Z,30.2583,-88.2131,81.4,1111122 
DISL,ioos:station:DISL:KATA:1,2017-07-03T01:30:00Z,30.2583,-88.2131,80.7,1111122 
DISL,ioos:station:DISL:KATA:1,2017-07-03T02:00:00Z,30.2583,-88.2131,84.2,1111122 
DISL,ioos:station:DISL:KATA:1,2017-07-03T02:30:00Z,30.2583,-88.2131,82.6,1111122 
DISL,ioos:station:DISL:KATA:1,2017-07-03T03:00:00Z,30.2583,-88.2131,83.1,1111122 
DISL,ioos:station:DISL:KATA:1,2017-07-03T03:30:00Z,30.2583,-88.2131,82.9,1111122 
DISL,ioos:station:DISL:KATA:1,2017-07-03T04:00:00Z,30.2583,-88.2131,83.4,1111122 
DISL,ioos:station:DISL:KATA:1,2017-07-03T04:30:00Z,30.2583,-88.2131,81.6,1111122 
DISL,ioos:station:DISL:KATA:1,2017-07-03T05:00:00Z,30.2583,-88.2131,76.06,1111122 
DISL,ioos:station:DISL:KATA:1,2017-07-03T05:30:00Z,30.2583,-88.2131,77.62,1111122 
DISL,ioos:station:DISL:KATA:1,2017-07-03T06:00:00Z,30.2583,-88.2131,78.67,1111122 
DISL,ioos:station:DISL:KATA:1,2017-07-03T06:30:00Z,30.2583,-88.2131,79.18,1111122 
DISL,ioos:station:DISL:KATA:1,2017-07-03T07:00:00Z,30.2583,-88.2131,81.0,1111122 
DISL,ioos:station:DISL:KATA:1,2017-07-03T07:30:00Z,30.2583,-88.2131,80.6,1111122 
DISL,ioos:station:DISL:KATA:1,2017-07-03T08:00:00Z,30.2583,-88.2131,81.2,1111122 
DISL,ioos:station:DISL:KATA:1,2017-07-03T08:30:00Z,30.2583,-88.2131,84.0,1111122 
DISL,ioos:station:DISL:KATA:1,2017-07-03T09:00:00Z,30.2583,-88.2131,83.4,1111122 
DISL,ioos:station:DISL:KATA:1,2017-07-03T09:30:00Z,30.2583,-88.2131,80.7,1111122 
DISL,ioos:station:DISL:KATA:1,2017-07-03T10:00:00Z,30.2583,-88.2131,81.1,1111122 
DISL,ioos:station:DISL:KATA:1,2017-07-03T10:30:00Z,30.2583,-88.2131,83.9,1111122 
DISL,ioos:station:DISL:KATA:1,2017-07-03T11:00:00Z,30.2583,-88.2131,83.5,1111122 
DISL,ioos:station:DISL:KATA:1,2017-07-03T11:30:00Z,30.2583,-88.2131,83.7,1111122 
DISL,ioos:station:DISL:KATA:1,2017-07-03T12:00:00Z,30.2583,-88.2131,79.69,1111122 
DISL,ioos:station:DISL:KATA:1,2017-07-03T12:30:00Z,30.2583,-88.2131,79.59,1111122 
DISL,ioos:station:DISL:KATA:1,2017-07-03T13:00:00Z,30.2583,-88.2131,86.3,1111122 
DISL,ioos:station:DISL:KATA:1,2017-07-03T13:30:00Z,30.2583,-88.2131,87.8,1111122 
DISL,ioos:station:DISL:KATA:1,2017-07-03T14:00:00Z,30.2583,-88.2131,88.7,1111122 
DISL,ioos:station:DISL:KATA:1,2017-07-03T14:30:00Z,30.2583,-88.2131,90.3,1111122 
DISL,ioos:station:DISL:KATA:1,2017-07-03T15:00:00Z,30.2583,-88.2131,86.7,1111122 
DISL,ioos:station:DISL:KATA:1,2017-07-03T15:30:00Z,30.2583,-88.2131,85.8,1111122 
DISL,ioos:station:DISL:KATA:1,2017-07-03T16:00:00Z,30.2583,-88.2131,79.9,1111122 
DISL,ioos:station:DISL:KATA:1,2017-07-03T16:30:00Z,30.2583,-88.2131,77.83,1111122 
DISL,ioos:station:DISL:KATA:1,2017-07-03T17:00:00Z,30.2583,-88.2131,77.53,1111122 
DISL,ioos:station:DISL:KATA:1,2017-07-03T17:30:00Z,30.2583,-88.2131,75.46,1111122 
DISL,ioos:station:DISL:KATA:1,2017-07-03T18:00:00Z,30.2583,-88.2131,71.46,1111122 
DISL,ioos:station:DISL:KATA:1,2017-07-03T18:30:00Z,30.2583,-88.2131,68.81,1111122 
DISL,ioos:station:DISL:KATA:1,2017-07-03T19:00:00Z,30.2583,-88.2131,70.75,1111122 
DISL,ioos:station:DISL:KATA:1,2017-07-03T19:30:00Z,30.2583,-88.2131,70.54,1111122 
DISL,ioos:station:DISL:KATA:1,2017-07-03T20:00:00Z,30.2583,-88.2131,66.37,1111122 
DISL,ioos:station:DISL:KATA:1,2017-07-03T20:30:00Z,30.2583,-88.2131,66.75,1111122 
DISL,ioos:station:DISL:KATA:1,2017-07-03T21:00:00Z,30.2583,-88.2131,63.53,1111122 
DISL,ioos:station:DISL:KATA:1,2017-07-03T21:30:00Z,30.2583,-88.2131,60.31,1111122 
DISL,ioos:station:DISL:KATA:1,2017-07-03T22:00:00Z,30.2583,-88.2131,66.71,1111122 
DISL,ioos:station:DISL:KATA:1,2017-07-03T22:30:00Z,30.2583,-88.2131,66.78,1111122 
DISL,ioos:station:DISL:KATA:1,2017-07-03T23:00:00Z,30.2583,-88.2131,65.25,1111122 
DISL,ioos:station:DISL:KATA:1,2017-07-03T23:30:00Z,30.2583,-88.2131,68.37,1111122 
DISL,ioos:station:DISL:KATA:1,2017-07-04T00:00:00Z,30.2583,-88.2131,66.88,1111122 
DISL,ioos:station:DISL:KATA:1,2017-07-04T00:30:00Z,30.2583,-88.2131,66.38,1111122 
DISL,ioos:station:DISL:KATA:1,2017-07-04T01:00:00Z,30.2583,-88.2131,69.06,1111122 
DISL,ioos:station:DISL:KATA:1,2017-07-04T01:30:00Z,30.2583,-88.2131,68.7,1111122 
DISL,ioos:station:DISL:KATA:1,2017-07-04T02:00:00Z,30.2583,-88.2131,76.3,1111122 
DISL,ioos:station:DISL:KATA:1,2017-07-04T02:30:00Z,30.2583,-88.2131,74.33,1111122 
DISL,ioos:station:DISL:KATA:1,2017-07-04T03:00:00Z,30.2583,-88.2131,74.6,1111122 
DISL,ioos:station:DISL:KATA:1,2017-07-04T03:30:00Z,30.2583,-88.2131,76.5,1111122 
DISL,ioos:station:DISL:KATA:1,2017-07-04T04:00:00Z,30.2583,-88.2131,75.99,1111122 
DISL,ioos:station:DISL:KATA:1,2017-07-04T04:30:00Z,30.2583,-88.2131,76.2,1111122 
DISL,ioos:station:DISL:KATA:1,2017-07-04T05:00:00Z,30.2583,-88.2131,75.11,1111122 
DISL,ioos:station:DISL:KATA:1,2017-07-04T05:30:00Z,30.2583,-88.2131,75.25,1111122 
DISL,ioos:station:DISL:KATA:1,2017-07-04T06:00:00Z,30.2583,-88.2131,75.89,1111122 
DISL,ioos:station:DISL:KATA:1,2017-07-04T06:30:00Z,30.2583,-88.2131,73.96,1111122 
DISL,ioos:station:DISL:KATA:1,2017-07-04T07:00:00Z,30.2583,-88.2131,74.19,1111122 
DISL,ioos:station:DISL:KATA:1,2017-07-04T07:30:00Z,30.2583,-88.2131,76.06,1111122 
DISL,ioos:station:DISL:KATA:1,2017-07-04T08:00:00Z,30.2583,-88.2131,75.65,1111122 
DISL,ioos:station:DISL:KATA:1,2017-07-04T08:30:00Z,30.2583,-88.2131,75.62,1111122 
DISL,ioos:station:DISL:KATA:1,2017-07-04T09:00:00Z,30.2583,-88.2131,78.67,1111122 
DISL,ioos:station:DISL:KATA:1,2017-07-04T09:30:00Z,30.2583,-88.2131,77.86,1111122 
DISL,ioos:station:DISL:KATA:1,2017-07-04T10:00:00Z,30.2583,-88.2131,77.21,1111122 
DISL,ioos:station:DISL:KATA:1,2017-07-04T10:30:00Z,30.2583,-88.2131,80.9,1111122 
DISL,ioos:station:DISL:KATA:1,2017-07-04T11:00:00Z,30.2583,-88.2131,78.3,1111122 
DISL,ioos:station:DISL:KATA:1,2017-07-04T11:30:00Z,30.2583,-88.2131,77.99,1111122 
DISL,ioos:station:DISL:KATA:1,2017-07-04T12:00:00Z,30.2583,-88.2131,78.16,1111122 
DISL,ioos:station:DISL:KATA:1,2017-07-04T12:30:00Z,30.2583,-88.2131,75.18,1111122 
DISL,ioos:station:DISL:KATA:1,2017-07-04T13:00:00Z,30.2583,-88.2131,77.82,1111122 
DISL,ioos:station:DISL:KATA:1,2017-07-04T13:30:00Z,30.2583,-88.2131,76.97,1111122 
DISL,ioos:station:DISL:KATA:1,2017-07-04T14:00:00Z,30.2583,-88.2131,75.23,1111122 
DISL,ioos:station:DISL:KATA:1,2017-07-04T14:30:00Z,30.2583,-88.2131,77.83,1111122 
DISL,ioos:station:DISL:KATA:1,2017-07-04T15:00:00Z,30.2583,-88.2131,74.61,1111122 
DISL,ioos:station:DISL:KATA:1,2017-07-04T15:30:00Z,30.2583,-88.2131,74.1,1111122 
DISL,ioos:station:DISL:KATA:1,2017-07-04T16:00:00Z,30.2583,-88.2131,80.4,1111122 
DISL,ioos:station:DISL:KATA:1,2017-07-04T16:30:00Z,30.2583,-88.2131,75.66,1111122 
DISL,ioos:station:DISL:KATA:1,2017-07-04T17:00:00Z,30.2583,-88.2131,72.81,1111122 
DISL,ioos:station:DISL:KATA:1,2017-07-04T17:30:00Z,30.2583,-88.2131,72.85,1111122 
DISL,ioos:station:DISL:KATA:1,2017-07-04T18:00:00Z,30.2583,-88.2131,70.51,1111122 
DISL,ioos:station:DISL:KATA:1,2017-07-04T18:30:00Z,30.2583,-88.2131,65.39,1111122 
DISL,ioos:station:DISL:KATA:1,2017-07-04T19:00:00Z,30.2583,-88.2131,65.29,1111122 
DISL,ioos:station:DISL:KATA:1,2017-07-04T19:30:00Z,30.2583,-88.2131,68.85,1111122 
DISL,ioos:station:DISL:KATA:1,2017-07-04T20:00:00Z,30.2583,-88.2131,68.95,1111122 
DISL,ioos:station:DISL:KATA:1,2017-07-04T20:30:00Z,30.2583,-88.2131,68.27,1111122 
DISL,ioos:station:DISL:KATA:1,2017-07-04T21:00:00Z,30.2583,-88.2131,69.12,1111122 
DISL,ioos:station:DISL:KATA:1,2017-07-04T21:30:00Z,30.2583,-88.2131,71.39,1111122 
DISL,ioos:station:DISL:KATA:1,2017-07-04T22:00:00Z,30.2583,-88.2131,70.92,1111122 
DISL,ioos:station:DISL:KATA:1,2017-07-04T22:30:00Z,30.2583,-88.2131,66.44,1111122 
DISL,ioos:station:DISL:KATA:1,2017-07-04T23:00:00Z,30.2583,-88.2131,65.19,1111122 
DISL,ioos:station:DISL:KATA:1,2017-07-04T23:30:00Z,30.2583,-88.2131,68.85,1111122 
DISL,ioos:station:DISL:KATA:1,2017-07-05T00:00:00Z,30.2583,-88.2131,65.9,1111122 
DISL,ioos:station:DISL:KATA:1,2017-07-05T00:30:00Z,30.2583,-88.2131,70.68,1111122 
DISL,ioos:station:DISL:KATA:1,2017-07-05T01:00:00Z,30.2583,-88.2131,70.68,1111122 
DISL,ioos:station:DISL:KATA:1,2017-07-05T01:30:00Z,30.2583,-88.2131,73.47,1111122 
DISL,ioos:station:DISL:KATA:1,2017-07-05T02:00:00Z,30.2583,-88.2131,67.68,1111122 
DISL,ioos:station:DISL:KATA:1,2017-07-05T02:30:00Z,30.2583,-88.2131,72.67,1111122 
DISL,ioos:station:DISL:KATA:1,2017-07-05T03:00:00Z,30.2583,-88.2131,70.77,1111122 
DISL,ioos:station:DISL:KATA:1,2017-07-05T03:30:00Z,30.2583,-88.2131,74.06,1111122 
DISL,ioos:station:DISL:KATA:1,2017-07-05T04:00:00Z,30.2583,-88.2131,73.14,1111122 
DISL,ioos:station:DISL:KATA:1,2017-07-05T04:30:00Z,30.2583,-88.2131,74.03,1111122 
DISL,ioos:station:DISL:KATA:1,2017-07-05T05:00:00Z,30.2583,-88.2131,74.64,1111122 
DISL,ioos:station:DISL:KATA:1,2017-07-05T05:30:00Z,30.2583,-88.2131,75.18,1111122 
DISL,ioos:station:DISL:KATA:1,2017-07-05T06:00:00Z,30.2583,-88.2131,76.2,1111122 
DISL,ioos:station:DISL:KATA:1,2017-07-05T06:30:00Z,30.2583,-88.2131,75.11,1111122 
DISL,ioos:station:DISL:KATA:1,2017-07-05T07:00:00Z,30.2583,-88.2131,79.65,1111122 
DISL,ioos:station:DISL:KATA:1,2017-07-05T07:30:00Z,30.2583,-88.2131,80.2,1111122 
DISL,ioos:station:DISL:KATA:1,2017-07-05T08:00:00Z,30.2583,-88.2131,78.37,1111122 
DISL,ioos:station:DISL:KATA:1,2017-07-05T08:30:00Z,30.2583,-88.2131,78.67,1111122 
DISL,ioos:station:DISL:KATA:1,2017-07-05T09:00:00Z,30.2583,-88.2131,79.35,1111122 
DISL,ioos:station:DISL:KATA:1,2017-07-05T09:30:00Z,30.2583,-88.2131,78.3,1111122 
DISL,ioos:station:DISL:KATA:1,2017-07-05T10:00:00Z,30.2583,-88.2131,79.93,1111122 
DISL,ioos:station:DISL:KATA:1,2017-07-05T10:30:00Z,30.2583,-88.2131,80.5,1111122 
DISL,ioos:station:DISL:KATA:1,2017-07-05T11:00:00Z,30.2583,-88.2131,81.7,1111122 
DISL,ioos:station:DISL:KATA:1,2017-07-05T11:30:00Z,30.2583,-88.2131,78.5,1111122 
DISL,ioos:station:DISL:KATA:1,2017-07-05T12:00:00Z,30.2583,-88.2131,80.6,1111122 
DISL,ioos:station:DISL:KATA:1,2017-07-05T12:30:00Z,30.2583,-88.2131,80.5,1111122 
DISL,ioos:station:DISL:KATA:1,2017-07-05T13:00:00Z,30.2583,-88.2131,78.53,1111122 
DISL,ioos:station:DISL:KATA:1,2017-07-05T13:30:00Z,30.2583,-88.2131,77.23,1111122 
DISL,ioos:station:DISL:KATA:1,2017-07-05T14:00:00Z,30.2583,-88.2131,78.62,1111122 
DISL,ioos:station:DISL:KATA:1,2017-07-05T14:30:00Z,30.2583,-88.2131,78.75,1111122 
DISL,ioos:station:DISL:KATA:1,2017-07-05T15:00:00Z,30.2583,-88.2131,78.14,1111122 
DISL,ioos:station:DISL:KATA:1,2017-07-05T15:30:00Z,30.2583,-88.2131,79.69,1111122 
DISL,ioos:station:DISL:KATA:1,2017-07-05T16:00:00Z,30.2583,-88.2131,76.88,1111122 
DISL,ioos:station:DISL:KATA:1,2017-07-05T16:30:00Z,30.2583,-88.2131,77.42,1111122 
DISL,ioos:station:DISL:KATA:1,2017-07-05T17:00:00Z,30.2583,-88.2131,74.92,1111122 
DISL,ioos:station:DISL:KATA:1,2017-07-05T17:30:00Z,30.2583,-88.2131,74.71,1111122 
DISL,ioos:station:DISL:KATA:1,2017-07-05T18:00:00Z,30.2583,-88.2131,76.85,1111122 
DISL,ioos:station:DISL:KATA:1,2017-07-05T18:30:00Z,30.2583,-88.2131,77.15,1111122 
DISL,ioos:station:DISL:KATA:1,2017-07-05T19:00:00Z,30.2583,-88.2131,73.59,1111122 
DISL,ioos:station:DISL:KATA:1,2017-07-05T19:30:00Z,30.2583,-88.2131,77.02,1111122 
DISL,ioos:station:DISL:KATA:1,2017-07-05T20:00:00Z,30.2583,-88.2131,73.22,1111122 
DISL,ioos:station:DISL:KATA:1,2017-07-05T20:30:00Z,30.2583,-88.2131,75.56,1111122 
DISL,ioos:station:DISL:KATA:1,2017-07-05T21:00:00Z,30.2583,-88.2131,73.25,1111122 
DISL,ioos:station:DISL:KATA:1,2017-07-05T21:30:00Z,30.2583,-88.2131,74.61,1111122 
DISL,ioos:station:DISL:KATA:1,2017-07-05T22:00:00Z,30.2583,-88.2131,72.44,1111122 
DISL,ioos:station:DISL:KATA:1,2017-07-05T22:30:00Z,30.2583,-88.2131,73.66,1111122 
DISL,ioos:station:DISL:KATA:1,2017-07-05T23:00:00Z,30.2583,-88.2131,71.46,1111122 
DISL,ioos:station:DISL:KATA:1,2017-07-05T23:30:00Z,30.2583,-88.2131,70.2,1111122 
DISL,ioos:station:DISL:KATA:1,2017-07-06T00:00:00Z,30.2583,-88.2131,71.29,1111122 
DISL,ioos:station:DISL:KATA:1,2017-07-06T00:30:00Z,30.2583,-88.2131,75.02,1111122 
DISL,ioos:station:DISL:KATA:1,2017-07-06T01:00:00Z,30.2583,-88.2131,71.9,1111122 
DISL,ioos:station:DISL:KATA:1,2017-07-06T01:30:00Z,30.2583,-88.2131,72.76,1111122 
DISL,ioos:station:DISL:KATA:1,2017-07-06T02:00:00Z,30.2583,-88.2131,73.55,1111122 
DISL,ioos:station:DISL:KATA:1,2017-07-06T02:30:00Z,30.2583,-88.2131,75.85,1111122 
DISL,ioos:station:DISL:KATA:1,2017-07-06T03:00:00Z,30.2583,-88.2131,75.04,1111122 
DISL,ioos:station:DISL:KATA:1,2017-07-06T03:30:00Z,30.2583,-88.2131,75.89,1111122 
DISL,ioos:station:DISL:KATA:1,2017-07-06T04:00:00Z,30.2583,-88.2131,76.57,1111122 
DISL,ioos:station:DISL:KATA:1,2017-07-06T04:30:00Z,30.2583,-88.2131,76.4,1111122 
DISL,ioos:station:DISL:KATA:1,2017-07-06T05:00:00Z,30.2583,-88.2131,76.06,1111122 
DISL,ioos:station:DISL:KATA:1,2017-07-06T05:30:00Z,30.2583,-88.2131,76.4,1111122 
DISL,ioos:station:DISL:KATA:1,2017-07-06T06:00:00Z,30.2583,-88.2131,74.43,1111122 
DISL,ioos:station:DISL:KATA:1,2017-07-06T06:30:00Z,30.2583,-88.2131,77.86,1111122 
DISL,ioos:station:DISL:KATA:1,2017-07-06T07:00:00Z,30.2583,-88.2131,79.11,1111122 
DISL,ioos:station:DISL:KATA:1,2017-07-06T07:30:00Z,30.2583,-88.2131,78.2,1111122 
DISL,ioos:station:DISL:KATA:1,2017-07-06T08:00:00Z,30.2583,-88.2131,74.6,1111122 
DISL,ioos:station:DISL:KATA:1,2017-07-06T08:30:00Z,30.2583,-88.2131,74.53,1111122 
DISL,ioos:station:DISL:KATA:1,2017-07-06T09:00:00Z,30.2583,-88.2131,75.25,1111122 
DISL,ioos:station:DISL:KATA:1,2017-07-06T09:30:00Z,30.2583,-88.2131,77.21,1111122 
DISL,ioos:station:DISL:KATA:1,2017-07-06T10:00:00Z,30.2583,-88.2131,77.59,1111122 
DISL,ioos:station:DISL:KATA:1,2017-07-06T10:30:00Z,30.2583,-88.2131,77.52,1111122 
DISL,ioos:station:DISL:KATA:1,2017-07-06T11:00:00Z,30.2583,-88.2131,75.45,1111122 
DISL,ioos:station:DISL:KATA:1,2017-07-06T11:30:00Z,30.2583,-88.2131,74.67,1111122 
DISL,ioos:station:DISL:KATA:1,2017-07-06T12:00:00Z,30.2583,-88.2131,73.45,1111122 
DISL,ioos:station:DISL:KATA:1,2017-07-06T12:30:00Z,30.2583,-88.2131,72.33,1111122 
DISL,ioos:station:DISL:KATA:1,2017-07-06T13:00:00Z,30.2583,-88.2131,74.13,1111122 
DISL,ioos:station:DISL:KATA:1,2017-07-06T13:30:00Z,30.2583,-88.2131,75.54,1111122 
DISL,ioos:station:DISL:KATA:1,2017-07-06T14:00:00Z,30.2583,-88.2131,80.9,1111122 
DISL,ioos:station:DISL:KATA:1,2017-07-06T14:30:00Z,30.2583,-88.2131,73.2,1111122 
DISL,ioos:station:DISL:KATA:1,2017-07-06T15:00:00Z,30.2583,-88.2131,75.46,1111122 
DISL,ioos:station:DISL:KATA:1,2017-07-06T15:30:00Z,30.2583,-88.2131,72.51,1111122 
DISL,ioos:station:DISL:KATA:1,2017-07-06T16:00:00Z,30.2583,-88.2131,73.83,1111122 
DISL,ioos:station:DISL:KATA:1,2017-07-06T16:30:00Z,30.2583,-88.2131,72.61,1111122 
DISL,ioos:station:DISL:KATA:1,2017-07-06T17:00:00Z,30.2583,-88.2131,70.85,1111122 
DISL,ioos:station:DISL:KATA:1,2017-07-06T17:30:00Z,30.2583,-88.2131,74.74,1111122 
DISL,ioos:station:DISL:KATA:1,2017-07-06T18:00:00Z,30.2583,-88.2131,70.88,1111122 
DISL,ioos:station:DISL:KATA:1,2017-07-06T18:30:00Z,30.2583,-88.2131,73.42,1111122 
DISL,ioos:station:DISL:KATA:1,2017-07-06T19:00:00Z,30.2583,-88.2131,69.08,1111122 
DISL,ioos:station:DISL:KATA:1,2017-07-06T19:30:00Z,30.2583,-88.2131,68.71,1111122 
DISL,ioos:station:DISL:KATA:1,2017-07-06T20:00:00Z,30.2583,-88.2131,68.85,1111122 
DISL,ioos:station:DISL:KATA:1,2017-07-06T20:30:00Z,30.2583,-88.2131,73.73,1111122 
DISL,ioos:station:DISL:KATA:1,2017-07-06T21:00:00Z,30.2583,-88.2131,71.83,1111122 
DISL,ioos:station:DISL:KATA:1,2017-07-06T21:30:00Z,30.2583,-88.2131,71.29,1111122 
DISL,ioos:station:DISL:KATA:1,2017-07-06T22:00:00Z,30.2583,-88.2131,71.39,1111122 
DISL,ioos:station:DISL:KATA:1,2017-07-06T22:30:00Z,30.2583,-88.2131,64.61,1111122 
DISL,ioos:station:DISL:KATA:1,2017-07-06T23:00:00Z,30.2583,-88.2131,67.32,1111122 
DISL,ioos:station:DISL:KATA:1,2017-07-06T23:30:00Z,30.2583,-88.2131,68.37,1111122 
DISL,ioos:station:DISL:KATA:1,2017-07-07T00:00:00Z,30.2583,-88.2131,68.47,1111122 